User: anonymous   Login
Location: Unspecified
(0.0000°N, 0.0000°E)
Time: 21:52:40
(UTC+00:00)
Language:

OBJECT AX - Orbit

View from above orbital plane
View from above orbital plane
View from above satellite
View from above satellite

Ground track
Ground track

The orbit is defined by the following mean orbital elements,

1 67293U          26145.14832639 +.00000000 +00000-0 +17260-3 0 00003
2 67293  97.3940 220.2717 0012550  72.8857 287.3753 15.22600928    02
Epoch (UTC): 25 May 2026 03:33:35
Eccentricity: 0.0012550
inclination: 97.3940°
perigee height: 489 km
apogee height: 507 km
right ascension of ascending node: 220.2717°
argument of perigee: 72.8857°
revolutions per day: 15.22600928
mean anomaly at epoch: 287.3753°

The dashed part of the orbit path shows where the satellite is in the earth's shadow,  

DLR